Location: Nakusp
(50.2330°N, 117.8000°W)
Time: 16:07:48
(UTC-07:00)

Cosmos 1939 Rocket - Visible Passes

Search period start: 02 July 2015 00:00
Search period end: 12 July 2015 00:00
Orbit: 536 x 590 km, 97.6° (Epoch: 01 July)

Date Brightness Start Highest point End Pass type
(mag) Time Alt. Az. Time Alt. Az. Time Alt. Az.
02 Jul 5.9 22:53:05 10° W 22:54:00 10° W 22:54:41 10° WNW visible
03 Jul 5.9 22:52:47 10° W 22:53:45 10° W 22:54:30 10° WNW visible
04 Jul 5.9 22:52:29 10° W 22:53:30 11° W 22:54:18 10° WNW visible
05 Jul 5.9 22:52:11 10° W 22:53:15 11° W 22:54:06 10° WNW visible
06 Jul 5.8 22:51:53 10° W 22:53:00 11° W 22:53:54 10° WNW visible
07 Jul 5.8 22:51:35 10° W 22:52:45 11° W 22:53:41 10° WNW visible
08 Jul 5.8 22:51:17 10° W 22:52:29 11° W 22:53:28 10° WNW visible
09 Jul 5.8 22:50:59 10° WSW 22:52:14 11° W 22:53:14 10° WNW visible
10 Jul 5.8 22:50:41 10° WSW 22:51:57 11° W 22:53:00 10° WNW visible
11 Jul 5.8 22:50:24 10° WSW 22:51:41 11° W 22:52:46 10° WNW visible
